Location: Fazenda Monte Alegre
(4.8500°S, 38.0333°W)
Time: 15:37:33
(UTC+00:00)

ARIANE 5 R/B - Pass Details

Date: 24 September 2020
Orbit: 278 x 32512 km, 4.9° (Epoch: 19 October)

Event Time Altitude Azimuth Distance (km) Brightness Sun altitude
Rises 22:14:37 0° 282° (WNW) 4,174 7.0 -27.5°
Reaches altitude 10° 22:18:57 10° 291° (WNW) 1,914 4.9 -28.6°
Enters shadow 22:20:21 17° 302° (WNW) 1,199 3.6 -28.9°
